Weather History for McCall, ID

Change the Weather History Date:

Saturday, December 8, 2012

  Actual Average Record
Temperature  
Mean Temperature 21 °F 19 °F  
Max Temperature 27 °F 28 °F 52 °F (1939)
Min Temperature 15 °F 11 °F -19 °F (2005)
Degree Days  
Heating Degree Days 44 46  
Month to date heating degree days 265 357  
Since 1 July heating degree days 2317 2995  
Cooling Degree Days 0 0  
Month to date cooling degree days 0 0  
Year to date cooling degree days 172 25  
Moisture  
Dew Point 17 °F    
Average Humidity 83    
Maximum Humidity 91    
Minimum Humidity 74    
Precipitation  
Precipitation 0.08 in 0.06 in 0.79 in (1970)
Month to date precipitation 2.97 0.46  
Year to date precipitation 29.80 18.50  
Sea Level Pressure  
Sea Level Pressure 30.02 in    
Wind  
Wind Speed 4 mph (WNW)    
Max Wind Speed 17 mph    
Max Gust Speed 24 mph    
Visibility 5 miles    
Events Fog , Snow    
T = Trace of Precipitation, MM = Missing Value Source: NWS Daily Summary

Daily Weather History Graph

Daily Weather History Graph

Search for Another Location

Airport:

Trip Planner

Search our weather history database for the weather conditions in past years. The results will help you decide how hot, cold, wet, or windy it might be!

Date:

Astronomy

Dec. 08, 2012 Rise Set
Actual Time 8:09 AM MST 5:03 PM MST
Civil Twilight 7:36 AM MST 5:36 PM MST
Nautical Twilight 6:59 AM MST 6:13 PM MST
Astronomical Twilight 6:24 AM MST 6:49 PM MST
Moon 2:28 AM MST (12/8) 1:45 PM MST (12/8)
Length of Visible Light 10h 00m
Length of Day
8h 53m
Waning Crescent, 27% of the Moon is Illuminated
Dec 8
Waning Crescent
Dec 13
New
Dec 19
First Quarter
Dec 28
Full
Jan 4
Last Quarter

Hourly Weather History & Observations

Time (MST) Temp. Windchill Dew Point Humidity Pressure Visibility Wind Dir Wind Speed Gust Speed Precip Events Conditions
12:05 AM 26.6 °F 15.2 °F 21.2 °F 80% 29.86 in 0.8 mi West 13.8 mph 21.9 mph 0.01 in Snow Light Snow
12:14 AM 26.6 °F 14.7 °F 23.0 °F 86% 29.86 in 0.5 mi WNW 15.0 mph 24.2 mph 0.03 in Fog , Snow Snow
12:26 AM 24.8 °F 12.9 °F 21.2 °F 86% 29.86 in 1.0 mi WNW 13.8 mph 24.2 mph 0.04 in Snow Light Snow
12:29 AM 24.8 °F 13.4 °F 21.2 °F 86% 29.86 in 1.2 mi WNW 12.7 mph 24.2 mph 0.04 in Snow Light Snow
12:34 AM 24.8 °F 14.0 °F 21.2 °F 86% 29.86 in 3.0 mi WNW 11.5 mph - 0.04 in Snow Light Snow
12:44 AM 24.8 °F 12.9 °F 19.4 °F 80% 29.87 in 9.0 mi WNW 13.8 mph 19.6 mph 0.04 in   Overcast
12:51 AM 25.0 °F 16.3 °F 19.9 °F 81% 29.96 in 10.0 mi WNW 8.1 mph 19.6 mph 0.04 in   Overcast
1:25 AM 24.8 °F 15.3 °F 19.4 °F 80% 29.88 in 2.0 mi WNW 9.2 mph - 0.00 in Snow Light Snow
1:33 AM 24.8 °F 16.1 °F 19.4 °F 80% 29.88 in 3.0 mi WNW 8.1 mph - 0.01 in Snow Light Snow
1:51 AM 24.1 °F 18.2 °F 17.1 °F 75% 29.97 in 6.0 mi WNW 4.6 mph - 0.01 in Snow Light Snow
2:51 AM 23.0 °F 14.7 °F 16.0 °F 74% 30.00 in 10.0 mi WNW 6.9 mph - 0.00 in   Overcast
3:51 AM 21.9 °F 13.4 °F 15.1 °F 75% 30.01 in 10.0 mi WNW 6.9 mph - N/A   Overcast
4:51 AM 19.9 °F 12.1 °F 15.1 °F 81% 30.02 in 10.0 mi WNW 5.8 mph - 0.00 in   Overcast
5:51 AM 18.0 °F - 14.0 °F 84% 30.04 in 10.0 mi Calm Calm - N/A   Overcast
6:47 AM 19.4 °F - 15.8 °F 86% 29.92 in 2.5 mi Calm Calm - 0.00 in Snow Light Snow
6:51 AM 19.9 °F - 17.1 °F 89% 30.04 in 1.5 mi Calm Calm - 0.00 in Snow Light Snow
7:05 AM 19.4 °F 14.3 °F 17.6 °F 93% 29.93 in 2.5 mi WNW 3.5 mph - 0.00 in Snow Light Snow
7:11 AM 19.4 °F 14.3 °F 17.6 °F 93% 29.93 in 4.0 mi WNW 3.5 mph - 0.00 in Snow Light Snow
7:17 AM 19.4 °F - 17.6 °F 93% 29.93 in 6.0 mi Calm Calm - 0.00 in Snow Light Snow
7:51 AM 19.9 °F - 17.1 °F 89% 30.05 in 10.0 mi Calm Calm - 0.00 in   Overcast
8:51 AM 19.9 °F - 17.1 °F 89% 30.06 in 10.0 mi Calm Calm - 0.00 in   Overcast
9:51 AM 21.0 °F - 17.1 °F 85% 30.07 in 3.0 mi Calm Calm - 0.00 in Snow Light Snow
10:09 AM 21.2 °F - 17.6 °F 86% 29.98 in 2.5 mi Calm Calm - 0.00 in Snow Light Snow
10:15 AM 21.2 °F - 17.6 °F 86% 29.98 in 1.0 mi Calm Calm - 0.00 in Snow Light Snow
10:28 AM 21.2 °F - 17.6 °F 86% 29.98 in 1.8 mi Calm Calm - 0.01 in Snow Light Snow
10:35 AM 21.2 °F 16.4 °F 17.6 °F 86% 29.98 in 3.0 mi South 3.5 mph - 0.01 in Snow Light Snow
10:48 AM 21.2 °F - 17.6 °F 86% 29.99 in 5.0 mi Calm Calm - 0.01 in Snow Light Snow
10:51 AM 21.0 °F - 18.0 °F 88% 30.10 in 5.0 mi Calm Calm - 0.01 in Snow Light Snow
11:02 AM 21.2 °F - 17.6 °F 86% 29.99 in 1.8 mi Calm Calm - 0.00 in Snow Light Snow
11:07 AM 21.2 °F 14.9 °F 17.6 °F 86% 29.99 in 2.0 mi SSE 4.6 mph - 0.00 in Snow Light Snow
11:17 AM 21.2 °F 16.4 °F 17.6 °F 86% 29.99 in 4.0 mi SSE 3.5 mph - 0.00 in Snow Light Snow
11:51 AM 23.0 °F 17.0 °F 17.1 °F 78% 30.09 in 6.0 mi WSW 4.6 mph - 0.00 in Snow Light Snow
12:06 PM 21.2 °F 14.9 °F 17.6 °F 86% 29.98 in 6.0 mi SSW 4.6 mph - 0.00 in Snow Light Snow
12:14 PM 23.0 °F - 17.6 °F 80% 29.98 in 6.0 mi Calm Calm - 0.00 in   Haze
12:23 PM 21.2 °F 14.9 °F 17.6 °F 86% 29.98 in 3.0 mi SSW 4.6 mph - 0.00 in Snow Light Snow
12:51 PM 24.1 °F 18.2 °F 18.0 °F 77% 30.09 in 10.0 mi WSW 4.6 mph - 0.00 in   Overcast
1:02 PM 23.0 °F 18.4 °F 17.6 °F 80% 29.97 in 10.0 mi South 3.5 mph - N/A   Overcast
1:20 PM 23.0 °F - 17.6 °F 80% 29.97 in 6.0 mi Calm Calm - 0.00 in Snow Light Snow
1:31 PM 23.0 °F 17.0 °F 17.6 °F 80% 29.97 in 2.5 mi West 4.6 mph - 0.00 in Snow Light Snow
1:51 PM 24.1 °F 19.7 °F 17.1 °F 75% 30.08 in 6.0 mi WSW 3.5 mph - 0.01 in Snow Light Snow
2:51 PM 23.0 °F 17.0 °F 17.1 °F 78% 30.09 in 10.0 mi West 4.6 mph - 0.00 in   Overcast
3:51 PM 23.0 °F 13.9 °F 16.0 °F 74% 30.10 in 10.0 mi West 8.1 mph - 0.00 in   Overcast
4:51 PM 21.9 °F 11.7 °F 16.0 °F 78% 30.14 in 7.0 mi North 9.2 mph - 0.00 in Snow Light Snow
4:56 PM 21.2 °F 10.9 °F 15.8 °F 80% 30.00 in 4.0 mi North 9.2 mph - 0.00 in Snow Light Snow
5:17 PM 19.4 °F 10.4 °F 15.8 °F 86% 30.00 in 8.0 mi North 6.9 mph - 0.00 in   Overcast
5:41 PM 19.4 °F 7.9 °F 15.8 °F 86% 30.00 in 2.0 mi North 10.4 mph - 0.00 in Snow Light Snow
5:47 PM 19.4 °F 7.9 °F 15.8 °F 86% 30.01 in 1.2 mi North 10.4 mph - 0.00 in Snow Light Snow
5:51 PM 19.9 °F 10.1 °F 15.1 °F 81% 30.17 in 1.2 mi North 8.1 mph - 0.00 in Snow Light Snow
6:06 PM 19.4 °F 11.5 °F 15.8 °F 86% 30.01 in 2.5 mi NNE 5.8 mph - 0.00 in Snow Light Snow
6:14 PM 19.4 °F 12.8 °F 15.8 °F 86% 30.01 in 3.0 mi North 4.6 mph - 0.00 in Snow Light Snow
6:51 PM 19.9 °F 14.9 °F 16.0 °F 85% 30.17 in 2.5 mi North 3.5 mph - 0.00 in Snow Light Snow
6:56 PM 19.4 °F 14.3 °F 15.8 °F 86% 30.02 in 1.8 mi North 3.5 mph - 0.00 in Snow Light Snow
7:08 PM 19.4 °F 11.5 °F 15.8 °F 86% 30.02 in 2.0 mi North 5.8 mph - 0.00 in Snow Light Snow
7:51 PM 19.9 °F - 15.1 °F 81% 30.18 in 3.0 mi Calm Calm - 0.01 in Snow Light Snow
7:57 PM 19.4 °F - 15.8 °F 86% 30.03 in 5.0 mi Calm Calm - 0.00 in Snow Light Snow
8:40 PM 19.4 °F - 17.6 °F 93% 30.04 in 2.5 mi Calm Calm - 0.00 in Snow Light Snow
8:51 PM 19.9 °F - 16.0 °F 85% 30.20 in 2.5 mi Calm Calm - 0.00 in Snow Light Snow
9:02 PM 19.4 °F - 15.8 °F 86% 30.05 in 6.0 mi Calm Calm - 0.00 in Snow Light Snow
9:51 PM 16.0 °F 10.4 °F 14.0 °F 92% 30.22 in 10.0 mi West 3.5 mph - 0.00 in   Overcast
10:29 PM 17.6 °F 12.3 °F 14.0 °F 86% 30.07 in 10.0 mi NNW 3.5 mph - N/A   Mostly Cloudy
10:51 PM 16.0 °F - 12.9 °F 88% 30.24 in 10.0 mi Calm Calm - N/A   Mostly Cloudy
11:51 PM 17.1 °F 8.7 °F 10.9 °F 77% 30.25 in 10.0 mi North 5.8 mph - N/A   Overcast